Regional Weather Roundup
Issued by NWS

Home | Current Version | Previous Version | Text Only | Print | Product List | Glossary On
Versions: 1 2 3 4 5 6 7 8 9 10 11 12 13 14 15 16 17 18 19 20 21 22 23 24 25 26 27 28 29 30 31 32 33 34 35 36 37 38 39 40 41 42 43 44 45 46 47 48 49 50
000
ASUS43 KMPX 150510
RWRMN
WEATHER ROUNDUP FOR MINNESOTA
NATIONAL WEATHER SERVICE TWIN CITIES/CHANHASSEN MN
1200 AM CDT SAT AUG 15 2020


NOTE: "FAIR" INDICATES FEW OR NO CLOUDS BELOW 12,000 FEET WITH NO
SIGNIFICANT WEATHER AND/OR OBSTRUCTIONS TO VISIBILITY. N/A MEANS
CURRENT SKY AND/OR WEATHER CONDITIONS ARE NOT AVAILABLE.

MNZ060>063-068>070-150600-
   Twin Cities Metro

CITY           SKY/WX    TMP DP  RH WIND       PRES   REMARKS
TWIN CITIES    CLOUDY    67  62  84 W14G23    29.93R
ST PAUL        CLOUDY    68  64  87 W10       29.92R
CRYSTAL        MOCLDY    66  61  84 W13       29.91R
BLAINE         CLOUDY    68  64  88 W12       29.91S
LAKEVILLE      CLOUDY    66  66 100 W7        29.94R
EDEN PRAIRIE   CLOUDY    66  61  84 W14G24    29.93R
SOUTH ST PAUL  CLOUDY    67  65  91 W7        29.92R
LAKE ELMO      FAIR      64  63  94 SW6       29.93R
$$
MNZ001>005-007-008-013>017-022>024-027-028-150600-
   Northwest Minnesota

CITY           SKY/WX    TMP DP  RH WIND       PRES   REMARKS
BEMIDJI        CLOUDY    56  55  95 W14G21    29.90R
HALLOCK        CLEAR     52  52 100 CALM      29.90R
ROSEAU         CLOUDY    57 N/A N/A NW12G18   29.85S
WARROAD        LGT RAIN  57  54  88 NW13      29.84R
CROOKSTON      CLEAR     54  54 100 W7        29.94R
FOSSTON        CLEAR     54  52  94 W9        29.94R
DETROIT LAKES    N/A     55  54  94 W10       29.97R
MOORHEAD       CLEAR     57  54  88 CALM      29.97R
PARK RAPIDS    CLOUDY    57  53  86 NW15G23   29.92R
MAHNOMEN       FAIR      54  53  97 W7        29.95R
$$
MNZ006-009>011-018-025>026-150600-
   North Central Minnesota

CITY           SKY/WX    TMP DP  RH WIND       PRES   REMARKS
BAUDETTE       CLOUDY    59  58  96 W13       29.80R
FLAG ISLAND      N/A     61  55  82 NW25G33   29.78R
INTL FALLS     CLOUDY    62  59  90 W9        29.74R
WASKISH          N/A     61  55  82 W18G28    29.84R
BIG FORK       CLOUDY    61  57  88 W8        29.87R
LONGVILLE      CLOUDY    59  55  88 W13G24    29.88R
GRAND RAPIDS   LGT RAIN  61  59  93 W13G20    29.86R
CRANE LAKE     CLOUDY    61  61 100 W3        29.77R
ORR            CLOUDY    61  57  88 W7        29.76R
COOK           CLOUDY    61  61 100 W7        29.78R
WALKER         CLOUDY    56  55  95 W10G20    29.89R
$$
MNZ012-019>021-037-150600-
   Northeast Minnesota

CITY           SKY/WX    TMP DP  RH WIND       PRES   REMARKS
DULUTH         CLOUDY    65  61  87 W20G30    29.82R
ELY            DRIZZLE   61  61 100 S6        29.76R
HIBBING        CLOUDY    60  59  96 W6        29.81R
EVELETH        CLOUDY    62  61  96 W9        29.81R
DULUTH HARBOR  CLOUDY    68  63  83 SW13      29.81R
TWO HARBORS    DRIZZLE   64  57  77 SW9       29.79R
SILVER BAY       N/A     63  61  94 S3        29.79R
GRAND MARAIS     N/A     65  60  84 W3        29.79F
G MARAIS ARPRT CLOUDY    63  57  82 S7        29.82R
$$
MNZ029>031-032-039>041-046>048-054>057-064-150600-
   West Central Minnesota

CITY           SKY/WX    TMP DP  RH WIND       PRES   REMARKS
FERGUS FALLS   CLEAR     54  54 100 W5        29.99R
WHEATON          N/A     59  55  88 W3        30.00S
MORRIS         CLEAR     55  55 100 W5        30.00S
ALEXANDRIA     CLEAR     58  55  90 W14G22    29.99R
ELBOW LAKE     FAIR      56  56 100 NW6       29.99S
WADENA         PTCLDY    55  55 100 W9        29.95R
GLENWOOD       CLEAR     57  55  94 W9        29.98S
APPLETON       CLEAR     59  55  88 W3        29.99S
BENSON         CLEAR     57  55  94 N5        30.00S
ORTONVILLE     CLEAR     61  55  82 W3        30.00S
MADISON        CLEAR     61  57  88 W6        30.01R
WILLMAR        FAIR      63  57  82 W7        30.02R
$$
MNZ033>034-036-042>043-049>051-058-059-150600-
   Central Minnesota

CITY           SKY/WX    TMP DP  RH WIND       PRES   REMARKS
ST CLOUD       PTCLDY    62  56  80 NW17      29.92R
SAUK CENTRE    FAIR      58  55  88 W13       29.96R
PAYNESVILLE    CLEAR     59  58  96 W8        29.97R
AITKIN         CLOUDY    61  55  82 W7G16     29.88R
PINE RIVER     CLOUDY    59  55  88 W10G18    29.93R
BRAINERD       CLOUDY    63  57  81 W14G21    29.92R
STAPLES        MOCLDY    57  54  88 NW14      29.94R
LONG PRAIRIE   FAIR      57  54  88 W15       29.96R
LITTLE FALLS   PTCLDY    61  55  82 NW8       29.93R
CAMP RIPLEY    MOCLDY    61  56  83 W7        29.94R
LITCHFIELD     CLEAR     64  61  88 NW14      29.96S
BUFFALO        PTCLDY    63  57  81 MISG      29.94S
MAPLE LAKE       N/A     63  59  86 W8        29.94S
HUTCHINSON     CLEAR     62  60  92 W8        29.97S
$$
MNZ037-044-045-052-053-150600-
   East Central Minnesota

CITY           SKY/WX    TMP DP  RH WIND       PRES   REMARKS
PRINCETON      MOCLDY    64  59  82 W14G24    29.91R
MORA           MOCLDY    64  63  94 W12G18    29.90R
CAMBRIDGE      MOCLDY    68  57  68 W10G18    29.90R
RUSH CITY      CLOUDY    65  62  90 SW5       29.89R
HINCKLEY       CLOUDY    64  63  94 CALM      29.87R
CLOQUET        CLOUDY    64  59  82 W13G18    29.84R
MCGREGOR       CLOUDY    63  59  88 W8        29.87R
$$
MNZ071>073-080-081-089-090-097-098-150600-
   Southwest Minnesota

CITY           SKY/WX    TMP DP  RH WIND       PRES   REMARKS
MONTEVIDEO     CLEAR     61  57  88 CALM      30.00S
GRANITE FALLS  CLEAR     61  58  92 W5        30.02R
CANBY          CLEAR     61  57  88 CALM      30.03R
MARSHALL       CLEAR     63  58  83 W3        30.02R
REDWOOD FALLS  CLEAR     62  56  80 NW10      29.99R
OLIVIA         CLEAR     61  57  88 NW7       29.99R
PIPESTONE        N/A     64  59  82 CALM      30.03S
WINDOM         CLEAR     61  57  88 NW8       30.01R
WORTHINGTON    CLEAR     61  59  93 N7        30.04R
JACKSON        CLEAR     63  59  88 NW6       30.02S
TRACY          CLEAR     62  56  81 NW5       30.02R
SLAYTON        CLEAR     62  52  71 N6        30.04R
$$
MNZ065>067-074>077-082>085-091>093-150600-
   South Central Minnesota

CITY           SKY/WX    TMP DP  RH WIND       PRES   REMARKS
MANKATO        PTCLDY    65  63  93 NW9       29.98F
NEW ULM        CLEAR     63  59  88 NW6       29.98S
ST JAMES         N/A     63  59  88 NW3       29.99F
FAIRMONT       CLEAR     65  61  87 NW10      30.00S
GLENCOE        PTCLDY    63  58  85 W3        29.95S
FARIBAULT      CLOUDY    66  64  94 W8        29.97R
OWATONNA       CLOUDY    68  64  88 W7        29.96R
ALBERT LEA     CLOUDY    66  64  94 NW3       29.97S
$$
MNZ078>079-086>088-094>096-150600-
   Southeast Minnesota

CITY           SKY/WX    TMP DP  RH WIND       PRES   REMARKS
ROCHESTER      CLOUDY    67  66  97 S5        29.96F
RED WING       CLOUDY    66  64  94 CALM      29.92R
STANTON        CLOUDY    67  64  90 W6        29.94R
DODGE CENTER   CLOUDY    66  64  94 W8        29.95F
WINONA         TSTM      68  64  88 NW12      29.96S
AUSTIN         CLOUDY    68  66  94 CALM      29.90F
PRESTON        TSTM      63  61  93 N3        29.94F
$$
ABBREVIATIONS USED IN REMARKS
   TC - TEMPERATURES IN CELSIUS
  WCI - WIND CHILL INDEX
   HX - HEAT INDEX
  VSB - VISIBILITY
$$




USA.gov is the U.S. government's official web portal to all federal, state and local government web resources and services.